IW1RID-3 Weather Reports


Display with metric or nautical units.
time (UTC)temp
F
wind
direction
speed
MPH
gust
MPH
rain 1hr
in
rain 24hr
in
rain mn
in
humidity
%
barometer
mb
20260506190641 64 0.0 0.0 0.00 0.00 0.00 71 1066.8
20260506184636 64 0.0 0.0 0.00 0.00 0.00 69 1066.5
20260506184547 64 0.0 0.0 0.00 0.00 0.00 69 1066.5
20260506182541 65 0.0 0.0 0.00 0.00 0.00 69 1066.4
20260506180535 66 0.0 0.0 0.00 0.00 0.00 64 1066.3
20260506172525 68 0.0 0.0 0.00 0.00 0.00 61 1066.4
20260506170518 68 0.0 0.0 0.00 0.00 0.00 60 1066.2
20260506164513 73 0.0 0.0 0.00 0.00 0.00 52 1066.4
20260506162509 73 0.0 0.0 0.00 0.00 0.00 51 1066.3
20260506160503 71 0.0 0.0 0.00 0.00 0.00 53 1066.5
20260506154457 73 0.0 0.0 0.00 0.00 0.00 50 1066.5
20260506152451 73 0.0 0.0 0.00 0.00 0.00 49 1066.5
20260506150446 74 0.0 0.0 0.00 0.00 0.00 49 1066.8
20260506144440 74 0.0 0.0 0.00 0.00 0.00 51 1067.0
20260506142435 71 0.0 0.0 0.00 0.00 0.00 56 1067.4
20260506140429 69 0.0 0.0 0.00 0.00 0.00 61 1066.9
20260506134424 70 0.0 0.0 0.00 0.00 0.00 60 1067.6
20260506132416 69 0.0 0.0 0.00 0.00 0.00 63 1067.8
20260506122357 69 0.0 0.0 0.00 0.00 0.00 64 1067.4
20260506120351 66 0.0 0.0 0.00 0.00 0.00 66 1067.4
20260506114342 66 0.0 0.0 0.00 0.00 0.00 68 1067.5
20260506112336 66 0.0 0.0 0.00 0.00 0.00 68 1067.3
20260506110331 66 0.0 0.0 0.00 0.00 0.00 69 1067.3
20260506104326 65 0.0 0.0 0.00 0.00 0.00 66 1067.5
20260506102320 65 0.0 0.0 0.00 0.00 0.00 70 1067.5
20260506100316 65 0.0 0.0 0.00 0.00 0.00 68 1067.5
20260506094310 66 0.0 0.0 0.00 0.00 0.00 68 1067.2
20260506092306 65 0.0 0.0 0.00 0.00 0.00 68 1067.2
20260506090258 65 0.0 0.0 0.00 0.00 0.00 71 1067.0
20260506084251 63 0.0 0.0 0.00 0.00 0.00 72 1066.8
20260506082247 62 0.0 0.0 0.00 0.00 0.00 79 1066.6
20260506080241 61 0.0 0.0 0.00 0.00 0.00 80 1066.6
20260506072231 59 0.0 0.0 0.00 0.00 0.00 83 1066.5
20260506070227 58 0.0 0.0 0.00 0.00 0.00 89 1066.5
20260506062215 56 0.0 0.0 0.00 0.00 0.00 89 1066.3
20260506060210 56 0.0 0.0 0.00 0.00 0.00 92 1066.3
20260506050153 54 0.0 0.0 0.00 0.00 0.00 93 1065.8
20260506044147 54 0.0 0.0 0.00 0.00 0.00 92 1065.7
20260506042142 55 0.0 0.0 0.00 0.00 0.00 93 1065.7
20260506040136 54 0.0 0.0 0.00 0.00 0.00 94 1066.1
20260506034131 55 0.0 0.0 0.00 0.00 0.00 90 1066.4
20260506032126 55 0.0 0.0 0.00 0.00 0.00 93 1067.0
20260506030120 56 0.0 0.0 0.00 0.00 0.00 85 1066.7
20260506024115 55 0.0 0.0 0.00 0.00 0.00 89 1065.9
20260506022110 55 0.0 0.0 0.00 0.00 0.00 89 1066.1
20260506020105 55 0.0 0.0 0.00 0.00 0.00 90 1066.5
20260506014100 56 0.0 0.0 0.00 0.00 0.00 89 1066.7
20260506012056 56 0.0 0.0 0.00 0.00 0.00 85 1066.6
20260506010049 56 0.0 0.0 0.00 0.00 0.00 88 1066.7
20260506004043 56 0.0 0.0 0.00 0.00 0.00 91 1066.5
20260506002038 56 0.0 0.0 0.00 0.00 0.00 92 1067.4
20260506000034 56 0.0 0.0 0.00 0.00 0.00 93 1067.8
20260505234028 56 0.0 0.0 0.00 0.00 0.00 92 1068.3
20260505232023 57 0.0 0.0 0.00 0.00 0.00 93 1069.0
20260505230018 57 0.0 0.0 0.00 0.00 0.00 89 1068.7
20260505224013 57 0.0 0.0 0.00 0.00 0.00 92 1069.1
20260505222008 57 0.0 0.0 0.00 0.00 0.00 89 1069.1
20260505220003 58 0.0 0.0 0.00 0.00 0.00 84 1068.9
20260505213957 58 0.0 0.0 0.00 0.00 0.00 86 1069.7
20260505211952 58 0.0 0.0 0.00 0.00 0.00 87 1070.1
20260505205947 58 0.0 0.0 0.00 0.00 0.00 87 1070.0
20260505201934 57 0.0 0.0 0.00 0.00 0.00 91 1070.1
20260505195927 58 0.0 0.0 0.00 0.00 0.00 89 1069.8